,,,FIT����@�O���\���l,,,�e�h�s����@���сi����l�j,
,,,���z��,����,,���z��,����
���t,����,,MW,MW,,MW,MW
2023/7/1,0:00,,0,42.9,,0,85.2
2023/7/1,0:30,,0,41.4,,0,79.7
2023/7/1,1:00,,0,38.5,,0,79.1
2023/7/1,1:30,,0,35.4,,0,82.5
2023/7/1,2:00,,0,32.2,,0,87.5
2023/7/1,2:30,,0,30.7,,0,95.9
2023/7/1,3:00,,0,30.9,,0,95.6
2023/7/1,3:30,,0,32.4,,0,100.5
2023/7/1,4:00,,12.4,35.3,,5.5,101.9
2023/7/1,4:30,,39.7,37.4,,43,100.3
2023/7/1,5:00,,87.2,38.4,,92.3,100.6
2023/7/1,5:30,,133.9,40.9,,137.8,93.2
2023/7/1,6:00,,179.1,44.8,,175.4,90.2
2023/7/1,6:30,,227.6,47.1,,251.1,86.7
2023/7/1,7:00,,279.4,47.8,,340.8,79.8
2023/7/1,7:30,,342.2,47.7,,430.6,80.1
2023/7/1,8:00,,416,46.9,,508.6,75.9
2023/7/1,8:30,,482.6,47,,620.4,76.4
2023/7/1,9:00,,544.7,48.1,,673,78
2023/7/1,9:30,,589.1,47.5,,745.8,81.4
2023/7/1,10:00,,618.5,45.4,,834.2,69.6
2023/7/1,10:30,,643.1,43.9,,874.2,68.1
2023/7/1,11:00,,663,43.1,,863.7,69.2
2023/7/1,11:30,,682.2,42,,880.9,68.6
2023/7/1,12:00,,700.7,40.4,,877.4,69.7
2023/7/1,12:30,,696.9,39.3,,811.1,72.3
2023/7/1,13:00,,670.8,38.8,,738,70.8
2023/7/1,13:30,,631.5,38.5,,671.7,61.2
2023/7/1,14:00,,578.8,38.6,,624.5,51.7
2023/7/1,14:30,,511.1,39.1,,561.5,51.5
2023/7/1,15:00,,428.4,39.9,,485.5,50.9
2023/7/1,15:30,,354.1,41.2,,405.1,52.5
2023/7/1,16:00,,288.1,43,,312.7,47
2023/7/1,16:30,,227.9,42.2,,245.4,46
2023/7/1,17:00,,173.4,39,,167.4,42.6
2023/7/1,17:30,,118.7,35.5,,96.8,40.9
2023/7/1,18:00,,63.7,31.8,,32.4,33.7
2023/7/1,18:30,,27.9,31,,10.3,31
2023/7/1,19:00,,0,32.9,,0,25.3
2023/7/1,19:30,,0,33.1,,1.5,23.5
2023/7/1,20:00,,0,31.5,,0,20.7
2023/7/1,20:30,,0,30.7,,0,19.8
2023/7/1,21:00,,0,30.6,,0,21.2
2023/7/1,21:30,,0,29.3,,0,21.3
2023/7/1,22:00,,0,26.7,,0,14.8
2023/7/1,22:30,,0,25.8,,0,15.4
2023/7/1,23:00,,0,26.5,,0,16
2023/7/1,23:30,,0,26.1,,0,21
2023/7/2,0:00,,0,17.2,,0,22
2023/7/2,0:30,,0,17.7,,0,26.2
2023/7/2,1:00,,0,16.9,,0,25.2
2023/7/2,1:30,,0,16.4,,0,26.2
2023/7/2,2:00,,0,16.2,,0,19.6
2023/7/2,2:30,,0,15.5,,0,18.2
2023/7/2,3:00,,0,14.2,,0,15.9
2023/7/2,3:30,,0,13.7,,0,14.7
2023/7/2,4:00,,23.5,13.9,,5.9,12.5
2023/7/2,4:30,,75.8,12.8,,50.4,9.7
2023/7/2,5:00,,166.3,10.4,,121.1,6.9
2023/7/2,5:30,,249.5,9.2,,215.4,5.4
2023/7/2,6:00,,325.4,9.4,,319.5,4.1
2023/7/2,6:30,,401.9,9.6,,447.2,4.1
2023/7/2,7:00,,478.8,10.1,,552.9,2.8
2023/7/2,7:30,,574.1,10.2,,682.9,2.8
2023/7/2,8:00,,687.6,10.1,,790.1,2.3
2023/7/2,8:30,,787.2,10.8,,873.9,2.4
2023/7/2,9:00,,875.8,11.8,,916.9,2.5
2023/7/2,9:30,,943.2,13,,925.6,2.9
2023/7/2,10:00,,992.2,14.2,,886,2
2023/7/2,10:30,,1011,14.8,,878.2,5.2
2023/7/2,11:00,,999.7,15,,885.4,8.3
2023/7/2,11:30,,973.9,15.5,,908.6,8.7
2023/7/2,12:00,,933.7,16.3,,879.8,9
2023/7/2,12:30,,888.2,16.7,,907,11.2
2023/7/2,13:00,,837.5,16.6,,878.3,10.3
2023/7/2,13:30,,774.4,16.5,,833.7,6.2
2023/7/2,14:00,,699,16.4,,722.6,4.2
2023/7/2,14:30,,610.9,15.5,,628.9,4.7
2023/7/2,15:00,,510.2,13.7,,529,9.4
2023/7/2,15:30,,420.7,12.1,,448.8,9.3
2023/7/2,16:00,,342.5,10.7,,319,7.2
2023/7/2,16:30,,273.9,9.4,,242,8
2023/7/2,17:00,,214.9,8.8,,147.1,7.2
2023/7/2,17:30,,149.3,8.7,,82.6,8.4
2023/7/2,18:00,,77.1,9.7,,29.1,7.8
2023/7/2,18:30,,31.4,10.4,,6.6,7.8
2023/7/2,19:00,,0,10.9,,0,3.6
2023/7/2,19:30,,0,10.9,,0.8,2.2
2023/7/2,20:00,,0,10.6,,0,1.1
2023/7/2,20:30,,0,10.3,,0,1.8
2023/7/2,21:00,,0,10.3,,0,1.6
2023/7/2,21:30,,0,10,,0,1.7
2023/7/2,22:00,,0,9.4,,0,1.6
2023/7/2,22:30,,0,9,,0,2
2023/7/2,23:00,,0,8.7,,0,1.4
2023/7/2,23:30,,0,9.1,,0,3
2023/7/3,0:00,,0,14.7,,0,4.2
2023/7/3,0:30,,0,15.9,,0,5.5
2023/7/3,1:00,,0,17,,0,5
2023/7/3,1:30,,0,17.6,,0,6.1
2023/7/3,2:00,,0,17.7,,0,5.2
2023/7/3,2:30,,0,17.6,,0,5.4
2023/7/3,3:00,,0,17.3,,0,5
2023/7/3,3:30,,0,17,,0,5.4
2023/7/3,4:00,,22.4,16.9,,5.4,4.4
2023/7/3,4:30,,68.5,16.8,,46.4,4.6
2023/7/3,5:00,,147.4,16.7,,110.8,3.6
2023/7/3,5:30,,223.6,16.2,,168.6,3.7
2023/7/3,6:00,,297,15.2,,207.7,2.1
2023/7/3,6:30,,373,14.5,,315.3,3.1
2023/7/3,7:00,,451.7,13.9,,411.4,3.1
2023/7/3,7:30,,553.1,13.9,,525.1,2.7
2023/7/3,8:00,,677.2,14.3,,621.7,1.7
2023/7/3,8:30,,793.2,14,,692.3,1.7
2023/7/3,9:00,,904,13,,734.7,2.4
2023/7/3,9:30,,985,12.1,,834.6,2
2023/7/3,10:00,,1039,11.5,,921.7,2.3
2023/7/3,10:30,,1078.9,13.3,,979.5,3.6
2023/7/3,11:00,,1104.6,17.4,,970.9,3.6
2023/7/3,11:30,,1111.8,19,,924.8,5.7
2023/7/3,12:00,,1100.4,17.8,,871.5,6.1
2023/7/3,12:30,,1072.6,17.1,,833.6,9.8
2023/7/3,13:00,,1028.4,16.9,,746.7,10.1
2023/7/3,13:30,,966.7,18.3,,662.6,10.5
2023/7/3,14:00,,887.6,21.5,,627.6,9.7
2023/7/3,14:30,,792.1,21.8,,555.2,11.2
2023/7/3,15:00,,680.4,19.2,,517.2,12.7
2023/7/3,15:30,,577.1,17.4,,461,11.5
2023/7/3,16:00,,482.3,16.4,,353.5,10.4
2023/7/3,16:30,,389.7,14.6,,274.1,11.4
2023/7/3,17:00,,299.5,11.9,,175.2,10.6
2023/7/3,17:30,,204.9,10.6,,86,10.4
2023/7/3,18:00,,105.8,10.8,,29.1,9.7
2023/7/3,18:30,,42.9,11.6,,7.9,11.5
2023/7/3,19:00,,0,13.1,,0,9.6
2023/7/3,19:30,,0,13.3,,1.7,9
2023/7/3,20:00,,0,12.2,,0,7.2
2023/7/3,20:30,,0,11.7,,0,7.4
2023/7/3,21:00,,0,11.8,,0,7
2023/7/3,21:30,,0,12.5,,0,4.6
2023/7/3,22:00,,0,13.6,,0,3
2023/7/3,22:30,,0,13.8,,0,3.2
2023/7/3,23:00,,0,13.1,,0,2.2
2023/7/3,23:30,,0,13.2,,0,1.8
2023/7/4,0:00,,0,13.4,,0,1.2
2023/7/4,0:30,,0,13.6,,0,1.9
2023/7/4,1:00,,0,14,,0,1.4
2023/7/4,1:30,,0,14.1,,0,2.3
2023/7/4,2:00,,0,14.2,,0,2.3
2023/7/4,2:30,,0,14.1,,0,2.1
2023/7/4,3:00,,0,13.9,,0,2.1
2023/7/4,3:30,,0,13.7,,0,2.4
2023/7/4,4:00,,21.4,13.5,,5.5,2.3
2023/7/4,4:30,,69.8,12.6,,47.3,3
2023/7/4,5:00,,154.6,10.8,,107.6,2.4
2023/7/4,5:30,,234.4,9.8,,197.7,2.9
2023/7/4,6:00,,309.3,9.5,,295.6,2.4
2023/7/4,6:30,,381.4,10.5,,407.7,2
2023/7/4,7:00,,450.9,12.5,,499.1,1.6
2023/7/4,7:30,,530.9,12,,610.8,2.1
2023/7/4,8:00,,619,8.4,,720.9,0.9
2023/7/4,8:30,,720,7,,847.6,2.4
2023/7/4,9:00,,834.6,7.4,,949.9,2.2
2023/7/4,9:30,,924,8.1,,1024.4,3.4
2023/7/4,10:00,,990.9,9,,1091.5,3
2023/7/4,10:30,,1039.5,10,,1132.2,5.3
2023/7/4,11:00,,1069.8,10.9,,1129.9,6.3
2023/7/4,11:30,,1074.7,11.8,,1116.1,7.7
2023/7/4,12:00,,1054.3,12.6,,1111.9,7
2023/7/4,12:30,,1022.4,12.7,,1076.9,8.3
2023/7/4,13:00,,979.1,12.1,,1022.7,9.1
2023/7/4,13:30,,927.8,12.2,,935.1,10.5
2023/7/4,14:00,,868.5,13.1,,835,9.5
2023/7/4,14:30,,789.8,13.5,,729.8,8.9
2023/7/4,15:00,,691.7,13.3,,608,7.3
2023/7/4,15:30,,596.7,13.6,,510.9,8.5
2023/7/4,16:00,,505,14.4,,394.1,7.8
2023/7/4,16:30,,413.4,14,,316.1,7.6
2023/7/4,17:00,,322.1,13.5,,193.9,6.6
2023/7/4,17:30,,221.8,14,,92.9,8.8
2023/7/4,18:00,,112.9,16.3,,30.6,8.5
2023/7/4,18:30,,44.2,17.5,,5.8,12.4
2023/7/4,19:00,,0,17.7,,0,10.8
2023/7/4,19:30,,0,17.2,,1.3,11.7
2023/7/4,20:00,,0,16,,0,11.9
2023/7/4,20:30,,0,14.9,,0,11
2023/7/4,21:00,,0,14,,0,9.6
2023/7/4,21:30,,0,13.8,,0,10
2023/7/4,22:00,,0,14.5,,0,9.7
2023/7/4,22:30,,0,16,,0,8
2023/7/4,23:00,,0,18.4,,0,8.5
2023/7/4,23:30,,0,19.5,,0,9.4
2023/7/5,0:00,,0,21.4,,0,12.1
2023/7/5,0:30,,0,22,,0,14.8
2023/7/5,1:00,,0,21.4,,0,13.2
2023/7/5,1:30,,0,21.5,,0,15.5
2023/7/5,2:00,,0,22.4,,0,18.3
2023/7/5,2:30,,0,23.3,,0,24
2023/7/5,3:00,,0,24.2,,0,25
2023/7/5,3:30,,0,25.6,,0,23.9
2023/7/5,4:00,,21.7,27.3,,5,22.9
2023/7/5,4:30,,67.2,27.5,,43,26.2
2023/7/5,5:00,,145.8,26.3,,97,22.9
2023/7/5,5:30,,223,25.4,,157.2,21.6
2023/7/5,6:00,,298.6,24.8,,208.7,21.5
2023/7/5,6:30,,378.2,25.6,,276.9,19.3
2023/7/5,7:00,,462,27.7,,330.9,17
2023/7/5,7:30,,569.9,28.3,,402.3,18.6
2023/7/5,8:00,,699.4,26.4,,487.3,18.5
2023/7/5,8:30,,827.3,25.8,,585.2,18.5
2023/7/5,9:00,,954.6,25.3,,689.6,17.1
2023/7/5,9:30,,1049.3,24.8,,792.2,18.2
2023/7/5,10:00,,1114.5,24.2,,897.1,17.8
2023/7/5,10:30,,1155.6,23.8,,991.8,19.9
2023/7/5,11:00,,1172.9,23.6,,1073.6,20.4
2023/7/5,11:30,,1173.5,23.9,,1143.7,21.2
2023/7/5,12:00,,1157.5,24.8,,1184.4,19
2023/7/5,12:30,,1126.6,24.8,,1173.7,21.3
2023/7/5,13:00,,1080.9,24,,1118.3,21.1
2023/7/5,13:30,,1010,24.7,,1040.4,21.2
2023/7/5,14:00,,914.1,26.9,,958.7,21.2
2023/7/5,14:30,,809,28.2,,832.5,22.2
2023/7/5,15:00,,694.7,28.8,,672.9,22.2
2023/7/5,15:30,,580.8,29.3,,537.8,25.5
2023/7/5,16:00,,467.2,29.8,,372.4,26.2
2023/7/5,16:30,,366.9,29.5,,249.9,29.7
2023/7/5,17:00,,280.1,30.5,,144.3,32.6
2023/7/5,17:30,,190.1,29.5,,67.8,40.6
2023/7/5,18:00,,97.4,28.2,,19,42.8
2023/7/5,18:30,,38.7,27.9,,3.8,49
2023/7/5,19:00,,0,28.2,,0,51.6
2023/7/5,19:30,,0,30.3,,0.3,59.7
2023/7/5,20:00,,0,33.8,,0,61.4
2023/7/5,20:30,,0,36.3,,0,65.6
2023/7/5,21:00,,0,38.1,,0,66.4
2023/7/5,21:30,,0,39.8,,0,67
2023/7/5,22:00,,0,41.7,,0,71.2
2023/7/5,22:30,,0,43.7,,0,74.5
2023/7/5,23:00,,0,45.8,,0,76.2
2023/7/5,23:30,,0,48.1,,0,77
2023/7/6,0:00,,0,47.1,,0,75.9
2023/7/6,0:30,,0,46.3,,0,76.6
2023/7/6,1:00,,0,47.5,,0,74.7
2023/7/6,1:30,,0,46.6,,0,74.2
2023/7/6,2:00,,0,43.7,,0,71.5
2023/7/6,2:30,,0,42.4,,0,73.7
2023/7/6,3:00,,0,42.7,,0,68.6
2023/7/6,3:30,,0,43.1,,0,71.2
2023/7/6,4:00,,10.7,43.5,,4.8,63
2023/7/6,4:30,,30.7,43.7,,39.5,64
2023/7/6,5:00,,64.4,43.6,,80.4,69.8
2023/7/6,5:30,,96.1,44.9,,100,70.5
2023/7/6,6:00,,125.2,47.7,,101.4,68.6
2023/7/6,6:30,,156.6,48.9,,128.3,69.9
2023/7/6,7:00,,190.4,48.5,,146.9,68.9
2023/7/6,7:30,,234.6,48,,171.7,61.9
2023/7/6,8:00,,289.2,47.1,,200.2,55.5
2023/7/6,8:30,,334.6,48.2,,222.3,49.8
2023/7/6,9:00,,373.8,50.7,,255.2,52.6
2023/7/6,9:30,,409.6,51.5,,277,57.2
2023/7/6,10:00,,445.1,50.5,,309.7,60.9
2023/7/6,10:30,,484.4,50.6,,379.5,65.7
2023/7/6,11:00,,527.3,51.9,,432.6,64.7
2023/7/6,11:30,,560.7,52.2,,466.9,75.4
2023/7/6,12:00,,584.8,51.5,,503.2,78.1
2023/7/6,12:30,,595.8,50.6,,571.4,85
2023/7/6,13:00,,593.8,49.6,,617.9,82
2023/7/6,13:30,,583.6,47.6,,702.2,91.2
2023/7/6,14:00,,565.1,44.5,,700.4,94.3
2023/7/6,14:30,,531.2,42.2,,598.5,95.9
2023/7/6,15:00,,482.1,40.6,,493.6,93.5
2023/7/6,15:30,,426.7,39.4,,363.4,92.3
2023/7/6,16:00,,365.3,38.4,,227.3,87.5
2023/7/6,16:30,,301.5,36.3,,167.2,87.7
2023/7/6,17:00,,235.3,33.8,,97.3,92
2023/7/6,17:30,,163.2,31.7,,52.1,90.5
2023/7/6,18:00,,85,30.8,,18.1,89.6
2023/7/6,18:30,,35.1,30.7,,3.1,93.3
2023/7/6,19:00,,0,31.5,,0,87.6
2023/7/6,19:30,,0,31.3,,0.1,85.9
2023/7/6,20:00,,0,30.2,,0,80
2023/7/6,20:30,,0,29.7,,0,80.8
2023/7/6,21:00,,0,29.7,,0,78.3
2023/7/6,21:30,,0,30,,0,75.7
2023/7/6,22:00,,0,30.6,,0,69.3
2023/7/6,22:30,,0,31.8,,0,65.4
2023/7/6,23:00,,0,33.7,,0,66.6
2023/7/6,23:30,,0,35.3,,0,66.1
2023/7/7,0:00,,0,58.5,,0,58.9
2023/7/7,0:30,,0,54,,0,54.9
2023/7/7,1:00,,0,48.9,,0,46.6
2023/7/7,1:30,,0,45.6,,0,39.4
2023/7/7,2:00,,0,44.2,,0,33.8
2023/7/7,2:30,,0,41.2,,0,32.1
2023/7/7,3:00,,0,36.7,,0,23
2023/7/7,3:30,,0,33.3,,0,20.9
2023/7/7,4:00,,26.2,30.9,,4.7,19.3
2023/7/7,4:30,,88.9,28.4,,45.4,18.8
2023/7/7,5:00,,198.2,25.7,,109.5,15.9
2023/7/7,5:30,,298.7,23.9,,196.7,10.2
2023/7/7,6:00,,390.5,23,,296.2,8.8
2023/7/7,6:30,,475.6,23.4,,432.2,12.5
2023/7/7,7:00,,553.8,25.1,,573.2,12.2
2023/7/7,7:30,,649.9,26.2,,703.2,13.3
2023/7/7,8:00,,763.9,26.1,,786.1,14.4
2023/7/7,8:30,,874,26.2,,865.1,21.9
2023/7/7,9:00,,983.3,25.9,,943.2,20.3
2023/7/7,9:30,,1063.3,26.4,,991.2,21.3
2023/7/7,10:00,,1117.1,27.6,,980.8,12.4
2023/7/7,10:30,,1150.7,28.2,,997.2,13.7
2023/7/7,11:00,,1164.3,28.3,,1011.3,15.3
2023/7/7,11:30,,1163.5,28.8,,1032.4,20.3
2023/7/7,12:00,,1148.4,29.6,,996.9,20.6
2023/7/7,12:30,,1113.8,30.2,,924.3,19.8
2023/7/7,13:00,,1059.7,30.4,,887,18.6
2023/7/7,13:30,,992.4,30.3,,748.1,24.8
2023/7/7,14:00,,912,29.7,,663,20.5
2023/7/7,14:30,,822.2,28.2,,623.6,19.8
2023/7/7,15:00,,722.8,25.9,,539.9,19.9
2023/7/7,15:30,,625.5,24.4,,479.4,22.1
2023/7/7,16:00,,530.4,23.8,,382.1,24.9
2023/7/7,16:30,,436.5,21.8,,302.1,24
2023/7/7,17:00,,343.7,18.7,,209.6,19.7
2023/7/7,17:30,,238,17.1,,108.7,20.8
2023/7/7,18:00,,119.3,17.2,,37.7,20.8
2023/7/7,18:30,,45.6,16.6,,8.4,19.7
2023/7/7,19:00,,0,15.2,,0,8.2
2023/7/7,19:30,,0,15.4,,0.8,7.3
2023/7/7,20:00,,0,17.2,,0,6.8
2023/7/7,20:30,,0,17.9,,0,7.3
2023/7/7,21:00,,0,17.6,,0,6.3
2023/7/7,21:30,,0,17.3,,0,5.8
2023/7/7,22:00,,0,17,,0,4
2023/7/7,22:30,,0,16.4,,0,6.2
2023/7/7,23:00,,0,15.4,,0,5.4
2023/7/7,23:30,,0,14.5,,0,6
2023/7/8,0:00,,0,14.1,,0,5.8
2023/7/8,0:30,,0,13.5,,0,6
2023/7/8,1:00,,0,13,,0,5.6
2023/7/8,1:30,,0,13,,0,6.5
2023/7/8,2:00,,0,13.5,,0,6.1
2023/7/8,2:30,,0,13.3,,0,6.9
2023/7/8,3:00,,0,12.3,,0,6.6
2023/7/8,3:30,,0,11.8,,0,7.9
2023/7/8,4:00,,21.9,11.6,,3.8,7
2023/7/8,4:30,,76.6,11.3,,47.8,7.9
2023/7/8,5:00,,173.7,11,,116.1,6.6
2023/7/8,5:30,,263.3,10.9,,192.7,7.3
2023/7/8,6:00,,345.5,11.2,,239.5,9.1
2023/7/8,6:30,,431.1,11.4,,293.5,14.9
2023/7/8,7:00,,520,11.6,,347.2,15.2
2023/7/8,7:30,,631.9,12.4,,450.8,15.3
2023/7/8,8:00,,766.9,13.8,,540.7,18.8
2023/7/8,8:30,,892.3,14.9,,614.3,21.2
2023/7/8,9:00,,1011.2,14.7,,760,18
2023/7/8,9:30,,1100.5,15.3,,871.4,17.3
2023/7/8,10:00,,1163.3,15.9,,981.1,13.1
2023/7/8,10:30,,1203.1,16.8,,1068,18.4
2023/7/8,11:00,,1220.2,18.1,,1118.5,12.4
2023/7/8,11:30,,1221.5,19.4,,1142.6,9.3
2023/7/8,12:00,,1207.2,22.4,,1167.1,9.2
2023/7/8,12:30,,1178.3,22.9,,1148.8,11
2023/7/8,13:00,,1134.6,22.6,,1114.9,11.7
2023/7/8,13:30,,1070.6,22.3,,1062.9,5.9
2023/7/8,14:00,,986.2,21.9,,971.5,4.2
2023/7/8,14:30,,884.2,20.9,,872.6,4.2
2023/7/8,15:00,,764.4,19.4,,745.5,8.6
2023/7/8,15:30,,653.9,18.6,,634,8.8
2023/7/8,16:00,,552.7,18.5,,487.5,7
2023/7/8,16:30,,450.2,17.3,,375.5,6.2
2023/7/8,17:00,,346.2,15,,234.5,4.1
2023/7/8,17:30,,236.1,13.4,,107.5,3.7
2023/7/8,18:00,,119.8,12.5,,33,2.4
2023/7/8,18:30,,46.9,12,,5.9,2.9
2023/7/8,19:00,,0,12,,0,0.5
2023/7/8,19:30,,0,12.1,,0.9,0.7
2023/7/8,20:00,,0,12.5,,0,1.1
2023/7/8,20:30,,0,12.5,,0,2
2023/7/8,21:00,,0,12.2,,0,2.6
2023/7/8,21:30,,0,11.8,,0,3.7
2023/7/8,22:00,,0,11.4,,0,4.4
2023/7/8,22:30,,0,11.4,,0,4
2023/7/8,23:00,,0,11.7,,0,3.2
2023/7/8,23:30,,0,12,,0,5.1
2023/7/9,0:00,,0,9.9,,0,4.9
2023/7/9,0:30,,0,10.4,,0,6.1
2023/7/9,1:00,,0,10.3,,0,4.7
2023/7/9,1:30,,0,10.7,,0,6.6
2023/7/9,2:00,,0,11.6,,0,11.7
2023/7/9,2:30,,0,12,,0,23
2023/7/9,3:00,,0,12,,0,27.3
2023/7/9,3:30,,0,12.3,,0,36.5
2023/7/9,4:00,,21.1,12.8,,2.9,39.8
2023/7/9,4:30,,73,13.2,,51.3,39.8
2023/7/9,5:00,,164.6,13.2,,122.9,37.2
2023/7/9,5:30,,250.6,14,,236.5,35.5
2023/7/9,6:00,,331.1,15.7,,380.3,36.3
2023/7/9,6:30,,413.6,17,,502.6,38.4
2023/7/9,7:00,,498.2,17.9,,613.8,40.7
2023/7/9,7:30,,613,18.3,,743.2,42.7
2023/7/9,8:00,,757.9,18.2,,861,38.4
2023/7/9,8:30,,895.9,19.8,,992,43.1
2023/7/9,9:00,,1030,23.1,,1087,43.7
2023/7/9,9:30,,1124.7,24.6,,1130.4,47.8
2023/7/9,10:00,,1183.2,24.2,,1132.4,37.3
2023/7/9,10:30,,1223.5,23.1,,1140.9,33.4
2023/7/9,11:00,,1245.7,21.2,,1156.1,33.9
2023/7/9,11:30,,1250.9,21.1,,1167.9,37.3
2023/7/9,12:00,,1238.9,22.7,,1165.8,37.9
2023/7/9,12:30,,1212.4,23.8,,1102.1,36
2023/7/9,13:00,,1171.2,24.2,,1018.5,34.7
2023/7/9,13:30,,1111.1,26,,938.1,34.9
2023/7/9,14:00,,1032.1,29.3,,852.9,30.9
2023/7/9,14:30,,933.1,29.8,,715.5,32.8
2023/7/9,15:00,,814.1,27.6,,591.3,30.6
2023/7/9,15:30,,698.9,25.4,,493.3,29.8
2023/7/9,16:00,,587.6,23.3,,366.9,25.4
2023/7/9,16:30,,479.1,21.8,,252.1,25.4
2023/7/9,17:00,,373.4,20.9,,145,25.4
2023/7/9,17:30,,256.3,19.5,,75.9,26.2
2023/7/9,18:00,,127.9,17.5,,22.1,24
2023/7/9,18:30,,48.4,17,,5.2,24.4
2023/7/9,19:00,,0,18.2,,0,13.5
2023/7/9,19:30,,0,18.4,,1.2,13.6
2023/7/9,20:00,,0,17.9,,0,17.6
2023/7/9,20:30,,0,17.6,,0,20.5
2023/7/9,21:00,,0,17.6,,0,18.5
2023/7/9,21:30,,0,18.5,,0,20
2023/7/9,22:00,,0,20.5,,0,18.5
2023/7/9,22:30,,0,22.3,,0,21.6
2023/7/9,23:00,,0,23.9,,0,30.9
2023/7/9,23:30,,0,24.5,,0,44.8
2023/7/10,0:00,,0,24.7,,0,42.4
2023/7/10,0:30,,0,25.6,,0,49.1
2023/7/10,1:00,,0,26.7,,0,48.2
2023/7/10,1:30,,0,27.7,,0,45
2023/7/10,2:00,,0,28.8,,0,43.4
2023/7/10,2:30,,0,29.5,,0,50.4
2023/7/10,3:00,,0,29.7,,0,53.5
2023/7/10,3:30,,0,30.6,,0,56.6
2023/7/10,4:00,,17.7,32.2,,2.4,48.7
2023/7/10,4:30,,61.7,33.2,,44.4,50.5
2023/7/10,5:00,,140.1,33.6,,104,51
2023/7/10,5:30,,214.2,34,,165.2,52.3
2023/7/10,6:00,,283.8,34.3,,199.4,56
2023/7/10,6:30,,361.5,34.5,,262.8,58.2
2023/7/10,7:00,,447.5,34.6,,312.8,53.8
2023/7/10,7:30,,551.8,36.2,,374.3,58.1
2023/7/10,8:00,,674.4,39.4,,442.1,57.9
2023/7/10,8:30,,791.2,39.7,,504.3,58
2023/7/10,9:00,,905.4,37.8,,579.1,58.9
2023/7/10,9:30,,994.8,36,,649.4,60.6
2023/7/10,10:00,,1062.5,34.2,,761.1,47.8
2023/7/10,10:30,,1112.9,33.5,,887.7,47.7
2023/7/10,11:00,,1146.1,33.8,,951.2,51.8
2023/7/10,11:30,,1160.9,34.3,,951.9,53.4
2023/7/10,12:00,,1157.3,34.9,,923.8,51
2023/7/10,12:30,,1136.4,33.9,,836.5,51.4
2023/7/10,13:00,,1098.1,31.3,,801.8,50.6
2023/7/10,13:30,,1041,29.3,,759.5,36.9
2023/7/10,14:00,,965.1,28.1,,700,27.3
2023/7/10,14:30,,873.3,26.3,,695.5,32.7
2023/7/10,15:00,,765.7,23.9,,637.1,41.8
2023/7/10,15:30,,659.7,22.5,,559.5,41.1
2023/7/10,16:00,,555.5,22.3,,442.9,34.8
2023/7/10,16:30,,451.1,20.5,,324.2,33.5
2023/7/10,17:00,,346.7,17.3,,201.4,34.5
2023/7/10,17:30,,235.3,15.6,,101.3,35.3
2023/7/10,18:00,,117.1,15.4,,31.4,31
2023/7/10,18:30,,44.2,15.2,,7,26.9
2023/7/10,19:00,,0,15,,0,12.8
2023/7/10,19:30,,0,15.4,,0.9,6.8
2023/7/10,20:00,,0,16.3,,0,5.5
2023/7/10,20:30,,0,16.1,,0,6.1
2023/7/10,21:00,,0,14.9,,0,4.7
2023/7/10,21:30,,0,14.3,,0,5.2
2023/7/10,22:00,,0,14.2,,0,4.6
2023/7/10,22:30,,0,14.5,,0,6.1
2023/7/10,23:00,,0,15.4,,0,6
2023/7/10,23:30,,0,15.3,,0,4.8
2023/7/11,0:00,,0,13.3,,0,3.2
2023/7/11,0:30,,0,13.9,,0,4.6
2023/7/11,1:00,,0,14.7,,0,5.1
2023/7/11,1:30,,0,15.9,,0,9.5
2023/7/11,2:00,,0,17.5,,0,8.8
2023/7/11,2:30,,0,18.1,,0,12.9
2023/7/11,3:00,,0,17.7,,0,11.7
2023/7/11,3:30,,0,17.2,,0,14.2
2023/7/11,4:00,,15.5,16.8,,1.7,9.1
2023/7/11,4:30,,51.7,16.4,,45.7,7.5
2023/7/11,5:00,,115.3,16.3,,113,5.8
2023/7/11,5:30,,175,15.8,,156.3,6.2
2023/7/11,6:00,,230.3,15,,200.5,7.5
2023/7/11,6:30,,289,14.7,,284.2,10.2
2023/7/11,7:00,,351.1,14.9,,363.3,10
2023/7/11,7:30,,431.8,15.7,,458.1,11.5
2023/7/11,8:00,,531.2,17.1,,531.5,11.5
2023/7/11,8:30,,625.7,19.4,,626.1,13.1
2023/7/11,9:00,,718.6,23.4,,731.9,13.2
2023/7/11,9:30,,785.4,24.6,,761.7,16.7
2023/7/11,10:00,,829.3,23,,797.2,14.4
2023/7/11,10:30,,857.4,23.4,,733.1,23.4
2023/7/11,11:00,,869.8,25.6,,696.3,32.2
2023/7/11,11:30,,865.3,26.2,,628.4,37.6
2023/7/11,12:00,,844.1,25.2,,562.7,37.4
2023/7/11,12:30,,816.5,24,,482.5,41.1
2023/7/11,13:00,,782.5,22.7,,409.9,43.3
2023/7/11,13:30,,733.6,21.8,,349.6,36.3
2023/7/11,14:00,,669.9,21.5,,341.6,32.5
2023/7/11,14:30,,605.4,20.8,,350.4,29.3
2023/7/11,15:00,,540,19.6,,327.5,24
2023/7/11,15:30,,467.1,18.3,,295.1,21.8
2023/7/11,16:00,,386.4,16.9,,273.7,16
2023/7/11,16:30,,309.1,15.8,,181.6,18.7
2023/7/11,17:00,,235.2,15.1,,124.8,19.8
2023/7/11,17:30,,158.3,14,,64.3,19
2023/7/11,18:00,,78.4,12.8,,24.1,22.2
2023/7/11,18:30,,29.5,13.7,,4.3,20.4
2023/7/11,19:00,,0,16.8,,0,22.1
2023/7/11,19:30,,0,18,,1.1,26
2023/7/11,20:00,,0,17.5,,0,32.1
2023/7/11,20:30,,0,17.6,,0,36.2
2023/7/11,21:00,,0,18.3,,0,26.1
2023/7/11,21:30,,0,18.7,,0,27.2
2023/7/11,22:00,,0,18.8,,0,26.4
2023/7/11,22:30,,0,18.7,,0,24.3
2023/7/11,23:00,,0,18.3,,0,23.1
2023/7/11,23:30,,0,19.3,,0,23
2023/7/12,0:00,,0,23.8,,0,21.8
2023/7/12,0:30,,0,23.8,,0,21.8
2023/7/12,1:00,,0,24.9,,0,24.1
2023/7/12,1:30,,0,25.6,,0,25.5
2023/7/12,2:00,,0,26.1,,0,24
2023/7/12,2:30,,0,26.7,,0,28.3
2023/7/12,3:00,,0,27.3,,0,31.3
2023/7/12,3:30,,0,28.5,,0,34.5
2023/7/12,4:00,,13.1,30.3,,1.3,36.3
2023/7/12,4:30,,45.3,29.8,,44.6,33.9
2023/7/12,5:00,,102.5,27.1,,102.1,28.7
2023/7/12,5:30,,157.8,25.5,,181.6,25.4
2023/7/12,6:00,,210.6,25,,253.2,24.7
2023/7/12,6:30,,273.6,24.8,,328.9,23.3
2023/7/12,7:00,,346.8,24.9,,357.7,19.9
2023/7/12,7:30,,426.1,26.3,,402.6,21.7
2023/7/12,8:00,,511.6,29,,443.1,23
2023/7/12,8:30,,592.9,30.8,,455.8,26
2023/7/12,9:00,,673.1,30.5,,466.1,20
2023/7/12,9:30,,724.1,29.8,,487.8,21.7
2023/7/12,10:00,,748.9,26.3,,480.2,11.1
2023/7/12,10:30,,758.4,23.9,,466.4,11.2
2023/7/12,11:00,,752.6,22.5,,446.4,12.2
2023/7/12,11:30,,742.5,22.1,,402.8,16
2023/7/12,12:00,,728,22.5,,377.7,15.3
2023/7/12,12:30,,705.4,23,,341.7,14.8
2023/7/12,13:00,,674.7,23.5,,306.5,13.4
2023/7/12,13:30,,625,24.4,,272.6,10.8
2023/7/12,14:00,,556.2,25.8,,235.7,11.3
2023/7/12,14:30,,484.4,26.7,,203.6,10.5
2023/7/12,15:00,,409.4,27.2,,166.3,14.2
2023/7/12,15:30,,339.9,32.4,,163.6,12.8
2023/7/12,16:00,,275.9,42.2,,139.4,11.6
2023/7/12,16:30,,217.1,48.7,,107.5,12.7
2023/7/12,17:00,,163.7,53,,73.8,16.1
2023/7/12,17:30,,109.9,51,,47.4,18.3
2023/7/12,18:00,,55.9,43.6,,16.6,19.9
2023/7/12,18:30,,22.4,43,,3.4,25.4
2023/7/12,19:00,,0,49.1,,0,22.1
2023/7/12,19:30,,0,53.4,,0.5,22.5
2023/7/12,20:00,,0,56,,0,22.4
2023/7/12,20:30,,0,59.4,,0,26.2
2023/7/12,21:00,,0,63.7,,0,28.3
2023/7/12,21:30,,0,68.2,,0,27
2023/7/12,22:00,,0,73.1,,0,24.5
2023/7/12,22:30,,0,73.2,,0,27.3
2023/7/12,23:00,,0,68.4,,0,26.1
2023/7/12,23:30,,0,69.9,,0,25
2023/7/13,0:00,,0,17.3,,0,23.4
2023/7/13,0:30,,0,18.2,,0,26
2023/7/13,1:00,,0,20.8,,0,26.7
2023/7/13,1:30,,0,22.7,,0,33.3
2023/7/13,2:00,,0,23.8,,0,35.7
2023/7/13,2:30,,0,24.7,,0,37.9
2023/7/13,3:00,,0,25.1,,0,31.8
2023/7/13,3:30,,0,26,,0,35.3
2023/7/13,4:00,,12.7,27.2,,0.9,35.5
2023/7/13,4:30,,49,27.6,,42.8,38
2023/7/13,5:00,,115.5,27.2,,105.7,38.9
2023/7/13,5:30,,181.9,26.4,,201.8,44.3
2023/7/13,6:00,,248,25,,294,44.3
2023/7/13,6:30,,310.9,24.3,,374.7,44.5
2023/7/13,7:00,,370.5,24.3,,435,44.9
2023/7/13,7:30,,448.1,24.1,,542.6,46.6
2023/7/13,8:00,,543.7,23.6,,624.5,49.6
2023/7/13,8:30,,636.5,24.5,,720.1,50.2
2023/7/13,9:00,,729.5,27.3,,792.3,50.3
2023/7/13,9:30,,803.7,28.8,,821.5,52.3
2023/7/13,10:00,,862.1,28.9,,897.9,49.3
2023/7/13,10:30,,899.1,29.2,,938.8,53.7
2023/7/13,11:00,,914.6,29.9,,952,55.2
2023/7/13,11:30,,907.9,30.2,,909.4,57.5
2023/7/13,12:00,,879,30.3,,852.3,59.1
2023/7/13,12:30,,857.9,30,,815.1,63.1
2023/7/13,13:00,,844.5,29.3,,787.6,63
2023/7/13,13:30,,805.8,29.6,,730,60.3
2023/7/13,14:00,,741.8,30.8,,656.1,62.4
2023/7/13,14:30,,669.2,30.8,,543.8,65.6
2023/7/13,15:00,,588.1,29.4,,450.2,63
2023/7/13,15:30,,501.1,28.2,,373.9,67.7
2023/7/13,16:00,,408.3,27.3,,279.6,66.9
2023/7/13,16:30,,324,25.9,,224.7,66
2023/7/13,17:00,,248.3,24.3,,140.4,61.5
2023/7/13,17:30,,168.1,23.7,,79.9,68.8
2023/7/13,18:00,,83.5,24,,24.3,65.7
2023/7/13,18:30,,31.6,24.3,,5,67
2023/7/13,19:00,,0,24.6,,0,61.4
2023/7/13,19:30,,0,24.4,,1.1,61.9
2023/7/13,20:00,,0,23.8,,0,55.2
2023/7/13,20:30,,0,24.9,,0,56.5
2023/7/13,21:00,,0,27.8,,0,50.7
2023/7/13,21:30,,0,28.6,,0,51.9
2023/7/13,22:00,,0,27.5,,0,49.5
2023/7/13,22:30,,0,26.3,,0,48.8
2023/7/13,23:00,,0,25.2,,0,50.8
2023/7/13,23:30,,0,24.1,,0,48.5
2023/7/14,0:00,,0,35.9,,0,46.7
2023/7/14,0:30,,0,34.4,,0,48.3
2023/7/14,1:00,,0,32.7,,0,48.7
2023/7/14,1:30,,0,32.1,,0,50.3
2023/7/14,2:00,,0,32.7,,0,47.5
2023/7/14,2:30,,0,33.3,,0,46.8
2023/7/14,3:00,,0,34,,0,34.3
2023/7/14,3:30,,0,35,,0,29
2023/7/14,4:00,,12,36.2,,0.4,30.7
2023/7/14,4:30,,48.5,36.8,,44.8,34
2023/7/14,5:00,,116.1,36.8,,103.7,32.3
2023/7/14,5:30,,180,36.1,,186.1,30.5
2023/7/14,6:00,,239.8,35,,294.4,30.2
2023/7/14,6:30,,299.5,34.8,,412.9,27.2
2023/7/14,7:00,,359.1,35.4,,505.2,27.8
2023/7/14,7:30,,438.3,33.3,,629.7,30.2
2023/7/14,8:00,,537,28.4,,720.1,31.2
2023/7/14,8:30,,627.4,27.2,,800.6,31.6
2023/7/14,9:00,,712.5,29.3,,883.4,29.1
2023/7/14,9:30,,771,33.6,,928.7,30.6
2023/7/14,10:00,,806,39.8,,946.7,18.6
2023/7/14,10:30,,823.6,41.8,,946.5,22.8
2023/7/14,11:00,,823.9,39.7,,924.4,18.9
2023/7/14,11:30,,835.2,36.1,,890,21.3
2023/7/14,12:00,,857.7,31,,877.7,22.8
2023/7/14,12:30,,853.8,27.4,,816,21.7
2023/7/14,13:00,,823.7,25.3,,763.6,23.2
2023/7/14,13:30,,776.8,23.7,,733.1,20.5
2023/7/14,14:00,,713.2,22.6,,686.3,20.7
2023/7/14,14:30,,639.8,22.9,,619.7,23.6
2023/7/14,15:00,,556.8,24.6,,527.6,26.4
2023/7/14,15:30,,476,24.6,,438.9,26.2
2023/7/14,16:00,,397.6,22.8,,310.2,25.3
2023/7/14,16:30,,319.8,21.7,,229,26.8
2023/7/14,17:00,,242.6,21.4,,137.9,25.7
2023/7/14,17:30,,163,20.7,,77.1,25
2023/7/14,18:00,,81,19.7,,26.7,25.5
2023/7/14,18:30,,30.6,18.9,,5,28.4
2023/7/14,19:00,,0,18.2,,0,21.4
2023/7/14,19:30,,0,18,,1.3,25.3
2023/7/14,20:00,,0,18.2,,0,28.3